User: anonymous   Login
Location: *
(40.7873°S, 98.7174°E)
Time: 07:41:02
(UTC+00:00)
Language:

Kosmos-1816 - Orbit

View from above orbital plane
View from above orbital plane
View from above satellite
View from above satellite

Ground track
Ground track

The orbit data is extracted from the following two-line orbital elements,

1 17359U 87009A   24174.19206815  .00000121  00000-0  11053-3 0  9996
2 17359  82.9236 202.5580 0033868  70.6661 357.7260 13.74554392875758
Epoch (UTC): 22 June 2024 04:36:34
Eccentricity: 0.0033868
inclination: 82.9236°
perigee height: 958 km
apogee height: 1008 km
right ascension of ascending node: 202.5580°
argument of perigee: 70.6661°
revolutions per day: 13.74554392
mean anomaly at epoch: 357.7260°
orbit number at epoch: 87575

The dashed part of the orbit path shows where the satellite is in the earth's shadow,  

DLR